Santa Monica, CA

7:49 PM PST on February 24, 2017 (GMT -0800)
Santa Monica Municipal

Weather History for KSMO - February, 2014

Change the Weather History Date:

Tuesday, February 18, 2014

  Actual Average Record
Temperature  
Mean Temperature 58 °F -  
Max Temperature 62 °F 68 °F 83 °F (1965)
Min Temperature 55 °F 48 °F 37 °F (1942)
Degree Days  
Heating Degree Days 6    
Growing Degree Days 8 (Base 50)    
Moisture  
Dew Point 51 °F    
Average Humidity 79    
Maximum Humidity 94    
Minimum Humidity 62    
Precipitation  
Precipitation 0.00 in - - ()
Sea Level Pressure  
Sea Level Pressure 30.03 in    
Wind  
Wind Speed 2 mph (SSW)    
Max Wind Speed 8 mph    
Max Gust Speed -    
Visibility 7 miles    
Events      
Averages and records for this station are not official NWS values.
T = Trace of Precipitation, MM = Missing Value Source: NWS Daily Summary

Daily Weather History Graph

Daily Weather History Graph

Search for Another Location

Airport or City:

Trip Planner

Search our weather history database for the weather conditions in past years. The results will help you decide how hot, cold, wet, or windy it might be!

Date:

Astronomy

Feb. 18, 2014 Rise Set
Actual Time 6:35 AM PST 5:40 PM PST
Civil Twilight 6:09 AM PST 6:06 PM PST
Nautical Twilight 5:40 AM PST 6:35 PM PST
Astronomical Twilight 5:11 AM PST 7:04 PM PST
Moon 9:25 PM PST (2/18) 8:21 AM PST (2/18)
Length of Visible Light 11h 56m
Length of Day
11h 05m
Waning Gibbous, 86% of the Moon is Illuminated
Feb 18
Waning Gibbous
Feb 22
Last Quarter
Mar 1
New
Mar 8
First Quarter
Mar 16
Full

Hourly Weather History & Observations

Time (PST) Temp. Dew Point Humidity Pressure Visibility Wind Dir Wind Speed Gust Speed Precip Events Conditions
12:28 AM 57.2 °F 51.8 °F 82% 30.06 in 7.0 mi Calm Calm - N/A   Overcast
12:51 AM 57.9 °F 52.0 °F 81% 30.05 in 7.0 mi Calm Calm - N/A   Overcast
1:51 AM 57.9 °F 51.1 °F 78% 30.05 in 7.0 mi Calm Calm - N/A   Overcast
2:09 AM 57.2 °F 51.8 °F 82% 30.04 in 7.0 mi ENE 3.5 mph - N/A   Overcast
2:24 AM 57.2 °F 51.8 °F 82% 30.03 in 7.0 mi Calm Calm - N/A   Overcast
2:51 AM 57.0 °F 51.1 °F 81% 30.03 in 7.0 mi Calm Calm - N/A   Overcast
3:48 AM 57.2 °F 51.8 °F 82% 30.02 in 6.0 mi East 5.8 mph - N/A   Haze
3:51 AM 57.0 °F 51.1 °F 81% 30.02 in 7.0 mi East 3.5 mph - N/A   Overcast
4:36 AM 57.2 °F 50.0 °F 77% 30.03 in 8.0 mi ESE 3.5 mph - N/A   Overcast
4:51 AM 57.0 °F 50.0 °F 77% 30.04 in 8.0 mi ESE 3.5 mph - N/A   Overcast
5:51 AM 55.9 °F 48.9 °F 77% 30.04 in 6.0 mi SE 3.5 mph - N/A   Haze
6:51 AM 55.9 °F 48.9 °F 77% 30.06 in 5.0 mi Calm Calm - N/A   Haze
7:51 AM 57.0 °F 48.9 °F 74% 30.07 in 6.0 mi SSE 5.8 mph - N/A   Haze
8:51 AM 57.9 °F 48.9 °F 72% 30.08 in 5.0 mi Calm Calm - N/A   Haze
9:51 AM 60.1 °F 48.9 °F 67% 30.07 in 6.0 mi Variable 4.6 mph - N/A   Haze
10:13 AM 60.8 °F 48.2 °F 63% 30.07 in 6.0 mi West 3.5 mph - N/A   Haze
10:51 AM 61.0 °F 48.9 °F 64% 30.06 in 7.0 mi SW 5.8 mph - N/A   Clear
11:51 AM 62.1 °F 48.9 °F 62% 30.05 in 7.0 mi WSW 5.8 mph - N/A   Clear
12:51 PM 61.0 °F 48.9 °F 64% 30.03 in 7.0 mi Variable 6.9 mph - N/A   Clear
1:51 PM 60.1 °F 50.0 °F 69% 30.00 in 8.0 mi SW 6.9 mph - N/A   Clear
2:51 PM 60.1 °F 50.0 °F 69% 29.99 in 8.0 mi WSW 4.6 mph - N/A   Clear
3:51 PM 59.0 °F 51.1 °F 75% 29.99 in 7.0 mi WSW 8.1 mph - N/A   Clear
4:51 PM 59.0 °F 52.0 °F 78% 29.99 in 6.0 mi SW 6.9 mph - N/A   Haze
5:51 PM 57.9 °F 52.0 °F 81% 29.99 in 7.0 mi WSW 3.5 mph - N/A   Clear
6:51 PM 57.9 °F 52.0 °F 81% 30.00 in 7.0 mi Calm Calm - N/A   Partly Cloudy
7:44 PM 57.2 °F 53.6 °F 88% 30.01 in 7.0 mi SW 3.5 mph - N/A   Mostly Cloudy
7:51 PM 57.9 °F 53.1 °F 84% 30.01 in 7.0 mi SW 3.5 mph - N/A   Mostly Cloudy
8:23 PM 57.2 °F 53.6 °F 88% 30.01 in 8.0 mi Calm Calm - N/A   Scattered Clouds
8:37 PM 57.2 °F 53.6 °F 88% 30.01 in 8.0 mi Calm Calm - N/A   Mostly Cloudy
8:51 PM 57.0 °F 53.1 °F 87% 30.02 in 8.0 mi WSW 3.5 mph - N/A   Mostly Cloudy
9:42 PM 57.2 °F 53.6 °F 88% 30.01 in 7.0 mi Calm Calm - N/A   Partly Cloudy
9:51 PM 57.9 °F 53.1 °F 84% 30.01 in 7.0 mi Calm Calm - N/A   Mostly Cloudy
10:47 PM 55.4 °F 53.6 °F 94% 30.01 in 7.0 mi Calm Calm - N/A   Partly Cloudy
10:51 PM 55.9 °F 53.1 °F 90% 30.01 in 6.0 mi Calm Calm - N/A   Partly Cloudy
11:05 PM 55.4 °F 51.8 °F 88% 30.01 in 6.0 mi Calm Calm - N/A   Mostly Cloudy
11:51 PM 57.0 °F 53.1 °F 87% 30.00 in 8.0 mi Calm Calm - N/A   Mostly Cloudy